EW4806 Weather Reports


Display with metric or nautical units.
time (UTC)temp
F
wind
direction
speed
MPH
gust
MPH
rain 1hr
in
rain 24hr
in
rain mn
in
humidity
%
barometer
mb
20260504183206 66 251 0.0 2.0 0.00 0.12 0.00 60 1013.0
20260504181705 65 266 0.0 3.0 0.00 0.12 0.00 59 1013.0
20260504180205 64 308 0.0 2.0 0.00 0.12 0.00 62 1013.1
20260504174705 63 335 0.0 2.0 0.00 0.12 0.00 63 1013.3
20260504173859 62 285 0.0 0.0 0.00 0.12 0.00 64 1013.3
20260504171703 62 262 0.0 2.0 0.00 0.12 0.00 65 1013.4
20260504170200 61 282 0.0 4.0 0.00 0.12 0.00 67 1013.6
20260504160149 57 260 0.0 0.0 0.00 0.12 0.00 75 1013.9
20260504150836 55 235 0.0 0.0 0.00 0.12 0.00 78 1013.9
20260504140142 53 235 0.0 0.0 0.00 0.12 0.00 84 1013.3
20260504130138 52 235 0.0 0.0 0.00 0.12 0.00 84 1012.7
20260504120133 53 235 0.0 0.0 0.00 0.12 0.00 82 1012.7
20260504110131 55 249 0.0 0.0 0.00 0.12 0.00 81 1012.6
20260504100128 55 171 0.0 0.0 0.00 0.12 0.00 86 1012.4
20260504090128 56 171 0.0 0.0 0.00 0.12 0.00 86 1012.1
20260504080127 57 172 0.0 0.0 0.00 0.12 0.00 86 1012.0
20260504070125 58 148 0.0 0.0 0.00 0.12 0.00 86 1011.8
20260504060122 58 145 0.0 0.0 0.00 0.12 0.12 85 1011.8
20260504044612 59 118 0.0 0.0 0.00 0.12 0.12 84 1011.1
20260504043110 59 130 0.0 0.0 0.00 0.12 0.12 84 1011.3
20260504041608 59 165 0.0 1.0 0.00 0.12 0.12 83 1011.1
20260504040108 59 152 0.0 0.0 0.00 0.12 0.12 83 1010.9
20260504034606 60 220 0.0 0.0 0.00 0.12 0.12 82 1010.9
20260504033104 60 218 0.0 0.0 0.00 0.12 0.12 82 1010.7
20260504032257 60 77 0.0 0.0 0.00 0.12 0.12 82 1010.5
20260504024601 61 113 0.0 0.0 0.00 0.12 0.12 81 1009.9
20260504023056 61 116 0.0 0.0 0.00 0.12 0.12 81 1010.0
20260504021556 61 117 0.0 0.0 0.00 0.12 0.12 80 1010.2
20260504020055 61 108 0.0 1.0 0.00 0.12 0.12 79 1010.4
20260504014555 61 127 0.0 1.0 0.00 0.12 0.12 81 1010.2
20260504013056 61 241 0.0 1.0 0.00 0.12 0.12 79 1010.4
20260504011555 61 236 0.0 0.0 0.01 0.12 0.12 79 1010.3
20260504010758 61 117 0.0 0.0 0.12 0.12 0.12 78 1009.8
20260504004555 62 165 0.0 0.0 0.12 0.12 0.12 76 1010.2
20260504003055 63 68 0.0 2.0 0.12 0.12 0.12 70 1010.5
20260504001555 66 93 4.0 24.0 0.11 0.11 0.11 61 1010.3
20260504000055 78 60 3.0 19.0 0.00 0.00 0.00 37 1010.0
20260503234555 83 21 3.0 30.0 0.00 0.00 0.00 24 1007.5
20260503233057 84 214 0.0 1.0 0.00 0.00 0.00 24 1006.9
20260503231555 85 304 0.0 7.0 0.00 0.00 0.00 25 1006.7
20260503230055 85 262 0.0 2.0 0.00 0.00 0.00 24 1006.7
20260503224555 84 281 0.0 2.0 0.00 0.00 0.00 26 1006.9
20260503223050 84 320 0.0 3.0 0.00 0.00 0.00 28 1007.3
20260503221549 84 246 0.0 4.0 0.00 0.00 0.00 30 1007.5
20260503220049 83 330 0.0 4.0 0.00 0.00 0.00 30 1007.5
20260503214549 82 235 0.0 0.0 0.00 0.00 0.00 30 1007.9
20260503213045 82 194 0.0 1.0 0.00 0.00 0.00 30 1008.3
20260503211545 81 247 0.0 2.0 0.00 0.00 0.00 32 1008.4
20260503210745 80 241 0.0 3.0 0.00 0.00 0.00 34 1008.6
20260503204542 79 337 0.0 2.0 0.00 0.00 0.00 36 1008.6
20260503203042 78 249 0.0 2.0 0.00 0.00 0.00 39 1009.0
20260503201543 76 285 0.0 0.0 0.00 0.00 0.00 40 1009.1
20260503200747 76 181 0.0 2.0 0.00 0.00 0.00 42 1009.5
20260503195251 76 294 0.0 0.0 0.00 0.00 0.00 41 1009.6
20260503193041 74 8 0.0 0.0 0.00 0.00 0.00 42 1009.8
20260503191539 73 252 0.0 2.0 0.00 0.00 0.00 43 1010.2
20260503190742 73 299 0.0 1.0 0.00 0.00 0.00 46 1010.4
20260503184537 71 263 0.0 1.0 0.00 0.00 0.00 49 1010.6